Location: Anglesey
(53.1800°N, 4.2200°W)
Time: 19:47:53
(UTC+00:00)

N. Korean satellite - Pass Details

Date: 15 October 2017
Orbit: 461 x 513 km, 97.2° (Epoch: 11 December)

Event Time Altitude Azimuth Distance (km) Brightness Sun altitude
Rises 07:05:58 0° 29° (NNE) 2,503 10.5 -6.4°
Reaches altitude 10° 07:08:53 10° 57° (ENE) 1,621 10.1 -6.0°
Maximum altitude 07:10:43 14° 89° (E) 1,406 10.5 -5.7°
Drops below altitude 10° 07:12:33 10° 121° (ESE) 1,618 10.5 -5.4°
Sets 07:15:27 0° 148° (SSE) 2,493 10.8 -5.0°
